Regional Weather Roundup
Issued by NWS Midland/Odessa, TX

Skip options and go directly to product.
Home | Oldest Version | Previous Version | Current Version | All | Graphics & Text | Save Text | Print | Product List | Glossary On

Skip product version selection by date and time.   
310
ASUS44 KMAF 310210
RWRMAF
MIDLAND AREA WEATHER ROUNDUP
NATIONAL WEATHER SERVICE MIDLAND TX
900 PM CDT SUN AUG 30 2015

...IN SOUTHWEST TEXAS AND SOUTHEAST NEW MEXICO...

CITY           SKY/WX    TMP DP  RH WIND       PRES   REMARKS
ALPINE         CLEAR     78  47  33 SE6       30.15R
ANDREWS        FAIR      77  56  49 S7        30.02R
ARTESIA        CLEAR     81  50  34 S8        30.02R
BIG SPRING     CLEAR     78  51  39 SE10      30.02R
CARLSBAD       CLEAR     83  46  27 MISG      29.99R
DRYDEN           N/A     84  58  40 E8        29.98R
FORT STOCKTON  CLEAR     83  50  31 SE14G21   30.01R
GUAD PASS      CLEAR     74  45  35 E14       30.16S
HOBBS          CLEAR     75  52  43 CALM      30.05R
MARFA          CLEAR     75  48  38 SE8       30.12R
MIDLAND AIRPK  CLEAR     83  53  34 S12       30.02R
MIDLAND INTL   CLEAR     82  57  42 SE14      30.01R
ODESSA         CLEAR     82  55  39 S13       30.02R
PECOS          CLEAR     85  49  28 SE13      29.96R
PRESIDIO       NOT AVBL
SEMINOLE       CLEAR     78  52  39 S5        30.03S
SNYDER         CLEAR     82  56  40 SE8       30.00R
WINK           CLEAR     84  52  33 SE9       29.97R
$$
...OTHER STATIONS IN TEXAS...

CITY           SKY/WX    TMP DP  RH WIND       PRES   REMARKS
ABILENE        FAIR      83  59  44 SE12      29.98R
AMARILLO       CLEAR     76  51  41 SE10      30.03R
AUSTIN         PTCLDY    81  64  56 NE6       29.97R
BROWNSVILLE    PTCLDY    79  74  84 SE6       29.93S
CORPUS CHRISTI MOCLDY    84  72  67 SE9       29.95R
DALLAS FTW     MOCLDY    86  62  44 S14       29.94R
DEL RIO        CLOUDY    81  62  52 E15       29.93R
EL PASO        PTCLDY    87  44  22 S8        30.00S
HOUSTON INT    MOCLDY    80  69  69 S6        29.97R
LUBBOCK        CLEAR     78  55  44 S9        30.01S
SAN ANGELO     CLEAR     76  62  62 S7        30.00R
SAN ANTONIO    MOCLDY    84  62  47 E6        29.97R
WACO           MOCLDY    80  65  59 SW8       29.97R
WICHITA FALLS  NOT AVBL
$$
...OTHER LOCATIONS IN NEW MEXICO...

CITY           SKY/WX    TMP DP  RH WIND       PRES   REMARKS
ALAMAGORDO     PTCLDY    82  48  30 S7        30.02R
ALBUQUERQUE    PTCLDY    86  42  21 S8        30.07R
CANNON AFB     CLEAR     74  49  40 S6        30.06R
CLOVIS         CLEAR     75  46  35 S8        30.07R
HOLLOMAN AFB   PTCLDY    86  51  29 N6        30.00R
ROSWELL        CLEAR     81  49  32 S7        30.01R
RUIDOSO        CLEAR     66  50  55 MISG      30.26R
SANTA FE       CLEAR     74  45  35 W6        30.14R
TRUTH OR CONSE CLEAR     84  48  28 NW6       30.05R
TUCUMCARI      CLEAR     77  51  40 SW7       30.01R
$$

USA.gov is the U.S. government's official web portal to all federal, state and local government web resources and services.